HEBOWX Weather Reports


Display with metric or nautical units.
time (UTC)temp
F
wind
direction
speed
MPH
gust
MPH
rain 1hr
in
rain 24hr
in
rain mn
in
humidity
%
barometer
mb
20210727031638 61 2 20.0 24.0 0.00 0.00 0.00 73 1017.6
20210727031139 61 350 19.0 24.0 0.00 0.00 0.00 73 1017.6
20210727030636 61 7 19.0 26.0 0.00 0.00 0.00 73 1017.7
20210727030136 62 357 22.0 26.0 0.00 0.00 0.00 73 1017.6
20210727025636 62 5 21.0 26.0 0.00 0.00 0.00 73 1017.6
20210727025136 62 348 20.0 26.0 0.00 0.00 0.00 72 1017.7
20210727024636 62 7 20.0 26.0 0.00 0.00 0.00 71 1017.7
20210727024136 63 16 19.0 26.0 0.00 0.00 0.00 71 1017.6
20210727023636 63 357 21.0 25.0 0.00 0.00 0.00 70 1017.6
20210727023136 63 4 19.0 26.0 0.00 0.00 0.00 69 1017.6
20210727022636 64 7 19.0 26.0 0.00 0.00 0.00 68 1017.6
20210727022136 64 344 22.0 26.0 0.00 0.00 0.00 68 1017.5
20210727021638 65 5 22.0 25.0 0.00 0.00 0.00 67 1017.5
20210727021136 65 351 19.0 25.0 0.00 0.00 0.00 67 1017.7
20210727020636 65 0 19.0 25.0 0.00 0.00 0.00 67 1017.7
20210727020136 65 347 19.0 24.0 0.00 0.00 0.00 67 1017.7
20210727015636 65 345 19.0 24.0 0.00 0.00 0.00 66 1017.7
20210727014636 65 331 21.0 25.0 0.00 0.00 0.00 66 1017.6
20210727014136 65 352 18.0 25.0 0.00 0.00 0.00 66 1017.8
20210727013636 65 343 16.0 23.0 0.00 0.00 0.00 67 1017.8
20210727013136 65 1 19.0 21.0 0.00 0.00 0.00 67 1017.7
20210727012636 65 1 20.0 23.0 0.00 0.00 0.00 67 1017.7
20210727012136 65 347 20.0 23.0 0.00 0.00 0.00 66 1017.7
20210727011636 66 347 16.0 23.0 0.00 0.00 0.00 65 1017.8
20210727011136 66 0 15.0 22.0 0.00 0.00 0.00 65 1017.8
20210727010636 66 0 17.0 21.0 0.00 0.00 0.00 65 1017.8
20210727010136 66 355 15.0 21.0 0.00 0.00 0.00 65 1017.8
20210727005636 67 351 14.0 20.0 0.00 0.00 0.00 64 1017.8
20210727005136 67 340 18.0 22.0 0.00 0.00 0.00 63 1017.7
20210727004636 67 357 15.0 22.0 0.00 0.00 0.00 63 1017.9
20210727004136 67 338 11.0 22.0 0.00 0.00 0.00 64 1017.9
20210727003636 67 341 18.0 22.0 0.00 0.00 0.00 64 1017.7
20210727002636 67 4 18.0 21.0 0.00 0.00 0.00 64 1017.7
20210727002137 67 343 18.0 25.0 0.00 0.00 0.00 64 1017.6
20210727001136 68 338 14.0 25.0 0.00 0.00 0.00 64 1017.7
20210727000637 68 348 17.0 24.0 0.00 0.00 0.00 64 1017.7
20210727000136 68 343 17.0 24.0 0.00 0.00 0.00 64 1017.7
20210726235636 68 355 18.0 23.0 0.00 0.00 0.00 64 1017.8
20210726235137 68 0 12.0 23.0 0.00 0.00 0.00 64 1017.9
20210726234636 69 11 18.0 23.0 0.00 0.00 0.00 64 1017.8
20210726234136 69 350 18.0 23.0 0.00 0.00 0.00 64 1017.7
20210726233636 69 357 17.0 22.0 0.00 0.00 0.00 65 1017.8
20210726233136 68 5 15.0 22.0 0.00 0.00 0.00 65 1017.7
20210726232636 69 340 18.0 22.0 0.00 0.00 0.00 65 1017.7
20210726232137 69 337 17.0 23.0 0.00 0.00 0.00 65 1017.8
20210726231636 69 350 16.0 23.0 0.00 0.00 0.00 65 1017.8
20210726231136 69 337 18.0 23.0 0.00 0.00 0.00 65 1017.9
20210726230637 69 0 15.0 20.0 0.00 0.00 0.00 65 1017.9
20210726230136 69 347 16.0 20.0 0.00 0.00 0.00 65 1017.9
20210726225636 69 4 14.0 20.0 0.00 0.00 0.00 65 1018.0
20210726225136 69 0 16.0 20.0 0.00 0.00 0.00 64 1018.0
20210726224636 69 350 16.0 19.0 0.00 0.00 0.00 64 1018.0
20210726224136 69 350 11.0 18.0 0.00 0.00 0.00 65 1018.1
20210726223636 69 1 12.0 18.0 0.00 0.00 0.00 65 1018.1
20210726223136 70 345 14.0 19.0 0.00 0.00 0.00 64 1018.0
20210726222636 70 0 16.0 19.0 0.00 0.00 0.00 64 1018.1
20210726222136 70 0 14.0 19.0 0.00 0.00 0.00 64 1018.1
20210726221636 70 355 12.0 16.0 0.00 0.00 0.00 63 1018.2
20210726220636 70 8 12.0 14.0 0.00 0.00 0.00 63 1018.4
20210726220136 70 5 10.0 15.0 0.00 0.00 0.00 63 1018.5
20210726215636 71 5 13.0 15.0 0.00 0.00 0.00 63 1018.4
20210726215136 70 7 10.0 15.0 0.00 0.00 0.00 63 1018.5
20210726214636 71 355 10.0 13.0 0.00 0.00 0.00 62 1018.4
20210726214136 71 29 11.0 13.0 0.00 0.00 0.00 62 1018.4
20210726213636 71 9 11.0 13.0 0.00 0.00 0.00 62 1018.5
20210726213136 71 22 10.0 13.0 0.00 0.00 0.00 62 1018.5
20210726212636 71 12 11.0 13.0 0.00 0.00 0.00 62 1018.5
20210726212136 71 36 10.0 12.0 0.00 0.00 0.00 61 1018.5
20210726211636 71 1 8.0 12.0 0.00 0.00 0.00 61 1018.5
20210726210636 71 22 8.0 12.0 0.00 0.00 0.00 61 1018.5
20210726210136 71 50 7.0 12.0 0.00 0.00 0.00 61 1018.5
20210726205636 71 18 8.0 12.0 0.00 0.00 0.00 61 1018.5
20210726205136 71 33 7.0 12.0 0.00 0.00 0.00 60 1018.6
20210726204636 71 23 9.0 11.0 0.00 0.00 0.00 60 1018.6
20210726204136 71 21 6.0 12.0 0.00 0.00 0.00 59 1018.6
20210726203636 71 11 8.0 12.0 0.00 0.00 0.00 59 1018.6
20210726202636 71 8 8.0 11.0 0.00 0.00 0.00 59 1018.6
20210726202136 71 25 9.0 10.0 0.00 0.00 0.00 59 1018.6
20210726201636 71 28 7.0 11.0 0.00 0.00 0.00 60 1018.7
20210726201136 71 28 7.0 11.0 0.00 0.00 0.00 60 1018.6
20210726200638 71 12 7.0 11.0 0.00 0.00 0.00 60 1018.6
20210726200139 71 37 8.0 11.0 0.00 0.00 0.00 60 1018.6
20210726195136 70 16 6.0 11.0 0.00 0.00 0.00 61 1018.7
20210726194636 70 47 8.0 10.0 0.00 0.00 0.00 62 1018.6
20210726194136 70 57 6.0 10.0 0.00 0.00 0.00 62 1018.6
20210726193636 70 53 8.0 12.0 0.00 0.00 0.00 61 1018.7
20210726193136 69 56 7.0 12.0 0.00 0.00 0.00 62 1018.6
20210726192636 69 29 8.0 12.0 0.00 0.00 0.00 61 1018.6
20210726192135 69 47 5.0 11.0 0.00 0.00 0.00 62 1018.6
20210726191635 69 64 7.0 11.0 0.00 0.00 0.00 62 1018.6
20210726191135 69 63 7.0 11.0 0.00 0.00 0.00 63 1018.6
20210726190635 68 26 7.0 9.0 0.00 0.00 0.00 58 1018.6
20210726190136 68 61 7.0 8.0 0.00 0.00 0.00 62 1018.6
20210726185635 68 67 6.0 12.0 0.00 0.00 0.00 62 1018.6
20210726185137 68 67 6.0 12.0 0.00 0.00 0.00 61 1018.6
20210726184635 68 28 7.0 12.0 0.00 0.00 0.00 62 1018.6
20210726184140 68 39 6.0 12.0 0.00 0.00 0.00 62 1018.6
20210726183135 68 40 8.0 12.0 0.00 0.00 0.00 61 1018.6
20210726182635 67 40 10.0 12.0 0.00 0.00 0.00 61 1018.6
20210726182136 67 14 8.0 14.0 0.00 0.00 0.00 61 1018.6
20210726181636 67 30 9.0 14.0 0.00 0.00 0.00 61 1018.5
20210726181135 67 11 12.0 14.0 0.00 0.00 0.00 62 1018.5
20210726180135 66 29 9.0 19.0 0.00 0.00 0.00 62 1018.4
20210726175635 66 16 13.0 19.0 0.00 0.00 0.00 62 1018.4
20210726175135 66 15 13.0 18.0 0.00 0.00 0.00 62 1018.2
20210726174635 66 15 16.0 18.0 0.00 0.00 0.00 63 1018.1
20210726174136 65 33 14.0 17.0 0.00 0.00 0.00 63 1018.2
20210726173636 65 14 14.0 19.0 0.00 0.00 0.00 63 1018.1
20210726173137 65 18 16.0 19.0 0.00 0.00 0.00 64 1018.1
20210726172635 65 18 15.0 19.0 0.00 0.00 0.00 64 1018.2
20210726172136 64 9 16.0 18.0 0.00 0.00 0.00 65 1018.2
20210726171635 64 18 14.0 18.0 0.00 0.00 0.00 66 1018.1
20210726171135 64 11 16.0 18.0 0.00 0.00 0.00 66 1018.2
20210726170635 64 14 15.0 18.0 0.00 0.00 0.00 67 1018.2
20210726170135 63 0 14.0 18.0 0.00 0.00 0.00 68 1018.1
20210726165635 63 1 14.0 18.0 0.00 0.00 0.00 68 1018.2
20210726165135 63 11 16.0 21.0 0.00 0.00 0.00 68 1018.1
20210726164635 63 9 15.0 21.0 0.00 0.00 0.00 68 1018.1
20210726164135 63 2 18.0 21.0 0.00 0.00 0.00 68 1018.0
20210726163637 62 5 19.0 21.0 0.00 0.00 0.00 68 1017.9
20210726163135 62 12 17.0 21.0 0.00 0.00 0.00 68 1018.0
20210726162635 62 22 16.0 20.0 0.00 0.00 0.00 69 1018.0
20210726162136 62 11 17.0 20.0 0.00 0.00 0.00 68 1018.1
20210726161635 62 5 15.0 20.0 0.00 0.00 0.00 68 1018.0
20210726161136 62 16 13.0 20.0 0.00 0.00 0.00 68 1018.1
20210726160635 62 1 16.0 20.0 0.00 0.00 0.00 68 1018.0
20210726160135 62 1 16.0 20.0 0.00 0.00 0.00 68 1018.0
20210726155635 62 4 16.0 20.0 0.00 0.00 0.00 69 1018.0
20210726155135 62 7 17.0 19.0 0.00 0.00 0.00 69 1018.1
20210726154635 62 4 18.0 21.0 0.00 0.00 0.00 69 1018.0
20210726154135 61 5 16.0 21.0 0.00 0.00 0.00 70 1018.0
20210726153635 61 15 17.0 21.0 0.00 0.00 0.00 71 1018.1
20210726153135 61 4 18.0 20.0 0.00 0.00 0.00 71 1018.0
20210726152635 61 8 17.0 19.0 0.00 0.00 0.00 68 1018.0
20210726152135 60 11 18.0 20.0 0.00 0.00 0.00 69 1018.1
20210726151635 60 15 18.0 20.0 0.00 0.00 0.00 72 1018.1
20210726151135 60 9 18.0 20.0 0.00 0.00 0.00 73 1018.1
20210726150635 60 14 17.0 19.0 0.00 0.00 0.00 73 1018.1
20210726150135 60 16 16.0 18.0 0.00 0.00 0.00 73 1018.1
20210726145636 60 14 15.0 19.0 0.00 0.00 0.00 73 1018.0
20210726145135 60 11 16.0 19.0 0.00 0.00 0.00 73 1018.1
20210726144635 59 5 17.0 19.0 0.00 0.00 0.00 73 1018.2
20210726144136 59 11 15.0 18.0 0.00 0.00 0.00 72 1018.2
20210726143635 60 4 16.0 18.0 0.00 0.00 0.00 73 1018.2
20210726143135 60 7 15.0 18.0 0.00 0.00 0.00 72 1018.1
20210726142635 59 11 15.0 17.0 0.00 0.00 0.00 72 1018.1
20210726142140 59 2 15.0 17.0 0.00 0.00 0.00 72 1018.1
20210726141635 59 8 15.0 17.0 0.00 0.00 0.00 72 1018.0
20210726141137 59 14 14.0 17.0 0.00 0.00 0.00 72 1018.1
20210726140635 60 18 14.0 16.0 0.00 0.00 0.00 72 1018.0
20210726140135 60 15 15.0 16.0 0.00 0.00 0.00 71 1018.0
20210726135635 60 22 14.0 16.0 0.00 0.00 0.00 70 1018.0
20210726135135 60 18 14.0 15.0 0.00 0.00 0.00 70 1018.0
20210726134635 60 19 15.0 15.0 0.00 0.00 0.00 68 1017.9
20210726134138 61 18 15.0 16.0 0.00 0.00 0.00 67 1017.9
20210726133635 61 26 15.0 16.0 0.00 0.00 0.00 66 1017.9
20210726133135 61 32 15.0 16.0 0.00 0.00 0.00 66 1017.9
20210726132636 61 30 14.0 16.0 0.00 0.00 0.00 66 1017.9
20210726132135 61 29 15.0 17.0 0.00 0.00 0.00 65 1017.9
20210726131135 61 26 14.0 17.0 0.00 0.00 0.00 64 1018.0
20210726130635 61 28 16.0 16.0 0.00 0.00 0.00 64 1018.0
20210726130135 61 30 14.0 15.0 0.00 0.00 0.00 64 1018.0
20210726125635 61 32 13.0 15.0 0.00 0.00 0.00 64 1018.1
20210726125135 60 28 13.0 15.0 0.00 0.00 0.00 63 1018.0
20210726124635 61 33 13.0 15.0 0.00 0.00 0.00 63 1018.0
20210726124135 61 30 14.0 15.0 0.00 0.00 0.00 63 1018.1
20210726123635 61 16 14.0 15.0 0.00 0.00 0.00 63 1018.0
20210726123135 61 25 13.0 18.0 0.00 0.00 0.00 63 1018.1
20210726122635 61 35 13.0 18.0 0.00 0.00 0.00 62 1018.0
20210726122135 61 19 13.0 18.0 0.00 0.00 0.00 61 1017.9
20210726121635 61 7 12.0 17.0 0.00 0.00 0.00 61 1017.9
20210726121135 61 28 13.0 17.0 0.00 0.00 0.00 61 1018.0
20210726120635 61 28 15.0 15.0 0.00 0.00 0.00 61 1018.0
20210726120135 61 32 14.0 20.0 0.00 0.00 0.00 61 1018.0
20210726115634 61 25 14.0 20.0 0.00 0.00 0.00 61 1018.0
20210726115134 61 26 15.0 20.0 0.00 0.00 0.00 62 1018.0
20210726114636 61 22 16.0 19.0 0.00 0.00 0.00 62 1017.9
20210726114135 61 15 15.0 19.0 0.00 0.00 0.00 63 1017.9
20210726113635 61 21 14.0 19.0 0.00 0.00 0.00 63 1018.0
20210726113135 61 26 16.0 19.0 0.00 0.00 0.00 64 1018.0
20210726112635 61 7 16.0 19.0 0.00 0.00 0.00 64 1018.0
20210726112135 61 21 16.0 18.0 0.00 0.00 0.00 64 1018.0
20210726111635 61 19 17.0 20.0 0.00 0.00 0.00 65 1018.0
20210726111135 61 22 17.0 20.0 0.00 0.00 0.00 66 1018.0
20210726110635 61 15 17.0 20.0 0.00 0.00 0.00 66 1018.0
20210726110135 60 26 18.0 19.0 0.00 0.00 0.00 67 1018.1
20210726105635 60 19 16.0 20.0 0.00 0.00 0.00 68 1018.1
20210726105135 60 18 17.0 20.0 0.00 0.00 0.00 68 1018.1
20210726104135 60 22 15.0 19.0 0.00 0.00 0.00 70 1018.1
20210726103634 60 16 16.0 21.0 0.00 0.00 0.00 70 1018.1
20210726103134 60 21 17.0 21.0 0.00 0.00 0.00 70 1018.0
20210726102635 60 9 15.0 21.0 0.00 0.00 0.00 70 1018.0
20210726102135 60 14 18.0 21.0 0.00 0.00 0.00 71 1018.0
20210726101634 60 8 18.0 21.0 0.00 0.00 0.00 71 1018.0
20210726101134 60 9 20.0 21.0 0.00 0.00 0.00 71 1018.1
20210726100634 60 11 19.0 21.0 0.00 0.00 0.00 72 1018.1
20210726100134 60 7 18.0 21.0 0.00 0.00 0.00 72 1018.1
20210726095634 60 19 19.0 21.0 0.00 0.00 0.00 73 1018.1
20210726095135 59 5 18.0 21.0 0.00 0.00 0.00 73 1018.1
20210726094635 60 5 19.0 23.0 0.00 0.00 0.00 73 1018.1
20210726094134 60 11 19.0 23.0 0.00 0.00 0.00 73 1018.2
20210726093635 59 4 21.0 23.0 0.00 0.00 0.00 73 1018.1
20210726093134 59 12 19.0 22.0 0.00 0.00 0.00 74 1018.1
20210726092634 59 4 19.0 22.0 0.00 0.00 0.00 74 1018.2
20210726092135 59 9 19.0 21.0 0.00 0.00 0.00 75 1018.2
20210726091634 59 12 19.0 21.0 0.00 0.00 0.00 75 1018.4
20210726091134 59 9 17.0 21.0 0.00 0.00 0.00 75 1018.4
20210726090635 59 9 17.0 23.0 0.00 0.00 0.00 75 1018.4
20210726090135 59 1 19.0 23.0 0.00 0.00 0.00 76 1018.5
20210726085635 59 2 19.0 23.0 0.00 0.00 0.00 76 1018.4
20210726085135 59 11 19.0 23.0 0.00 0.00 0.00 76 1018.4
20210726084634 59 0 18.0 23.0 0.00 0.00 0.00 76 1018.5
20210726084135 59 1 20.0 23.0 0.00 0.00 0.00 76 1018.6
20210726083634 59 352 18.0 26.0 0.00 0.00 0.00 75 1018.5
20210726083134 59 14 20.0 26.0 0.00 0.00 0.00 75 1018.5
20210726082634 59 7 22.0 26.0 0.00 0.00 0.00 76 1018.5
20210726082135 59 9 20.0 24.0 0.00 0.00 0.00 76 1018.5
20210726081634 59 5 22.0 26.0 0.00 0.00 0.00 76 1018.5
20210726081136 59 1 22.0 26.0 0.00 0.00 0.00 76 1018.5
20210726080634 59 7 21.0 26.0 0.00 0.00 0.00 76 1018.6
20210726080136 59 11 23.0 26.0 0.00 0.00 0.00 75 1018.6
20210726075635 59 18 20.0 26.0 0.00 0.00 0.00 75 1018.6
20210726074634 59 4 21.0 25.0 0.00 0.00 0.00 74 1018.6
20210726073634 60 7 20.0 25.0 0.00 0.00 0.00 73 1018.7
20210726073135 60 25 19.0 24.0 0.00 0.00 0.00 73 1018.6
20210726072634 59 19 21.0 23.0 0.00 0.00 0.00 72 1018.6
20210726072135 60 2 19.0 23.0 0.00 0.00 0.00 72 1018.7
20210726071636 60 9 21.0 23.0 0.00 0.00 0.00 71 1018.7
20210726071135 59 9 20.0 23.0 0.00 0.00 0.00 71 1018.7
20210726070634 60 11 20.0 23.0 0.00 0.00 0.00 70 1018.8
20210726070136 59 8 19.0 24.0 0.00 0.00 0.00 71 1018.7
20210726065635 60 2 18.0 24.0 0.00 0.00 0.00 71 1018.8
20210726065135 59 8 18.0 24.0 0.00 0.00 0.00 72 1018.8
20210726064634 59 7 19.0 24.0 0.00 0.00 0.00 73 1018.8
20210726064134 59 5 21.0 26.0 0.00 0.00 0.00 74 1018.8
20210726063634 59 8 19.0 26.0 0.00 0.00 0.00 75 1018.8
20210726063134 59 19 20.0 26.0 0.00 0.00 0.00 77 1018.7
20210726062634 59 2 20.0 26.0 0.00 0.00 0.00 78 1018.8
20210726062137 59 14 20.0 26.0 0.00 0.00 0.00 79 1018.8
20210726061634 59 11 21.0 25.0 0.00 0.00 0.00 79 1018.7
20210726061136 59 2 21.0 22.0 0.00 0.00 0.00 79 1018.8
20210726060636 59 9 21.0 25.0 0.00 0.00 0.00 79 1018.7
20210726060135 59 8 22.0 25.0 0.00 0.00 0.00 79 1018.8
20210726055634 59 2 21.0 25.0 0.00 0.00 0.00 79 1018.8
20210726055135 59 5 22.0 24.0 0.00 0.00 0.00 79 1018.7
20210726054634 59 7 21.0 26.0 0.00 0.00 0.00 79 1018.7
20210726054136 59 9 22.0 26.0 0.00 0.00 0.00 80 1018.7
20210726053634 59 11 22.0 26.0 0.00 0.00 0.00 80 1018.7
20210726053135 58 7 22.0 26.0 0.00 0.00 0.00 81 1018.7
20210726052634 58 1 22.0 26.0 0.00 0.00 0.00 81 1018.8
20210726052135 58 354 23.0 24.0 0.00 0.00 0.00 82 1018.8
20210726051634 58 2 21.0 24.0 0.00 0.00 0.00 82 1018.7
20210726051134 58 9 22.0 24.0 0.00 0.00 0.00 83 1018.7
20210726050634 58 5 20.0 22.0 0.00 0.00 0.00 83 1018.8
20210726050134 58 5 19.0 20.0 0.00 0.00 0.00 83 1018.8
20210726045634 58 2 18.0 22.0 0.00 0.00 0.00 83 1018.8
20210726045134 58 1 19.0 22.0 0.00 0.00 0.00 83 1018.7
20210726044634 59 5 19.0 22.0 0.00 0.00 0.00 83 1018.7
20210726044134 59 4 20.0 21.0 0.00 0.00 0.00 83 1018.7
20210726043634 59 4 20.0 22.0 0.00 0.00 0.00 82 1018.7
20210726043134 59 1 19.0 22.0 0.00 0.00 0.00 82 1018.7
20210726042634 59 351 19.0 22.0 0.00 0.00 0.00 81 1018.6
20210726042134 60 1 20.0 23.0 0.00 0.00 0.00 81 1018.6
20210726041634 60 357 19.0 23.0 0.00 0.00 0.00 81 1018.6
20210726041134 60 355 21.0 23.0 0.00 0.00 0.00 81 1018.6
20210726040634 60 5 21.0 22.0 0.00 0.00 0.00 80 1018.6
20210726040134 60 2 19.0 22.0 0.00 0.00 0.00 80 1018.7
20210726035634 60 2 19.0 22.0 0.00 0.00 0.00 80 1018.7
20210726035134 61 5 19.0 21.0 0.00 0.00 0.00 79 1018.7
20210726034634 61 2 20.0 21.0 0.00 0.00 0.00 79 1018.8
20210726034134 61 0 17.0 21.0 0.00 0.00 0.00 78 1018.8
20210726033134 62 8 18.0 20.0 0.00 0.00 0.00 77 1018.7
20210726032634 62 2 18.0 22.0 0.00 0.00 0.00 76 1018.8
20210726032134 62 2 17.0 22.0 0.00 0.00 0.00 76 1018.7